UBAKUSAT (43467 NORAD) Tracking and Keplerian Element Data

This shows tracking and keplerian element data for the satellite.

Feedback or suggestion? Click here.




ElementValue
Catalog43467
NameUBAKUSAT
Epoch Orbit2913
Epoch Day318.57994993
Epoch Year2018
RAAN345.7507
Inclination51.6396
Eccentricity0.00029
Argument of Perigee350.3163
Mean Anonmoly9.7773
Mean Motion15.58145463
Decay Rate8.212E-05
L11 43467U 98067NQ 18318.57994993 .00008212 00000-0 11333-3 0 9997
L22 43467 51.6396 345.7507 0002900 350.3163 9.7773 15.58145463 29139

Live tracking and technical data element details for UBAKUSAT (NORAD 43467). UBAKUSAT can be tracked NOW for your location showing map with azimuth and elevation plus other details from your city location.

Track the satellite on the map from your city or location and see movement details for azimuth, elevation, latitude, longitude, range, height, and movement on the map or in text.







IsCatalogInMostPopularTable: catalog: 43467, numindb: 78
Update: records affected: 1



GetName: 43467 UBAKUSAT

Hit Count: updated at: Fri, 16 Nov 2018 04:59:59 GMT